Location: Newark
(39.9267°N, 1.8017°W)
Time: 05:16:27
(UTC+00:00)

Envisat - Pass Details

Date: 31 October 2019
Orbit: 764 x 766 km, 98.1° (Epoch: 11 November)

Event Time Altitude Azimuth Distance (km) Brightness Sun altitude
Rises 18:59:09 0° 193° (SSW) 3,217 6.4 -22.1°
Reaches altitude 10° 19:01:43 10° 204° (SSW) 2,295 5.7 -22.6°
Maximum altitude 19:06:07 30° 264° (W) 1,361 4.9 -23.4°
Drops below altitude 10° 19:10:32 10° 325° (NW) 2,308 5.9 -24.3°
Sets 19:13:08 0° 336° (NNW) 3,239 6.6 -24.8°
